Location: Central Falls
(41.8900°N, 71.3929°W)
Time: 10:52:58
(UTC+00:00)

A-11 Canister half - Pass Details

Date: 10 December 2023
Orbit: 1526 x 1682 km, 47.3° (Epoch: 20 February)

Event Time Altitude Azimuth Distance (km) Brightness Sun altitude
Rises 06:55:28 0° 290° (WNW) 4,884 - -55.7°
Reaches altitude 10° 07:00:07 10° 272° (W) 3,866 - -54.9°
Maximum altitude 07:05:43 17° 237° (WSW) 3,300 - -53.9°
Drops below altitude 10° 07:11:14 10° 201° (SSW) 3,783 - -53.0°
Sets 07:15:45 0° 182° (S) 4,734 - -52.2°
